This is the latest recevied weather packets stored in our database for station/object N4ASP-13. If no packets are shown the sender has not sent any weather packets the latest 10 day(s).
| Time | Temp. | Humidity | Pressure | Rain* | Wind** | Luminosity | Snow |
|---|---|---|---|---|---|---|---|
| 1777320265 | 18.89° C | 56% | 1021.4 hPa | 0 mm | - | 830 W/m² | - |
| 1777320198 | 18.89° C | 57% | 1021.4 hPa | 0 mm | - | 831 W/m² | - |
| 1777320138 | 18.89° C | 59% | 1021.4 hPa | 0 mm | - | 835 W/m² | - |
| 1777320019 | 18.89° C | 59% | 1021.4 hPa | 0 mm | - | 840 W/m² | - |
| 1777319959 | 18.89° C | 58% | 1021.4 hPa | 0 mm | - | 844 W/m² | - |
| 1777319888 | 18.89° C | 58% | 1021.5 hPa | 0 mm | - | 846 W/m² | - |
| 1777319828 | 18.33° C | 58% | 1021.4 hPa | 0 mm | - | 849 W/m² | - |
| 1777319770 | 18.33° C | 59% | 1021.4 hPa | 0 mm | - | 854 W/m² | - |
| 1777319708 | 18.33° C | 59% | 1021.5 hPa | 0 mm | - | 856 W/m² | - |
| 1777319649 | 18.33° C | 61% | 1021.5 hPa | 0 mm | - | 860 W/m² | - |
| 1777319582 | 18.33° C | 59% | 1021.5 hPa | 0 mm | - | 860 W/m² | - |
| 1777319522 | 18.33° C | 60% | 1021.5 hPa | 0 mm | - | 861 W/m² | - |
| 1777319462 | 18.33° C | 60% | 1021.5 hPa | 0 mm | - | 868 W/m² | - |
| 1777319403 | 18.33° C | 59% | 1021.6 hPa | 0 mm | - | 872 W/m² | - |
| 1777319343 | 18.33° C | 59% | 1021.6 hPa | 0 mm | - | 877 W/m² | - |
| 1777319280 | 18.33° C | 63% | 1021.6 hPa | 0 mm | - | 875 W/m² | - |
| 1777319220 | 18.33° C | 61% | 1021.6 hPa | 0 mm | - | 879 W/m² | - |
| 1777319161 | 18.33° C | 62% | 1021.7 hPa | 0 mm | - | 882 W/m² | - |
| 1777319098 | 18.33° C | 61% | 1021.7 hPa | 0 mm | - | 886 W/m² | - |
| 1777319038 | 18.33° C | 60% | 1021.9 hPa | 0 mm | - | 888 W/m² | - |
| 1777318978 | 18.33° C | 61% | 1021.9 hPa | 0 mm | - | 889 W/m² | - |
| 1777318918 | 18.33° C | 60% | 1022 hPa | 0 mm | - | 893 W/m² | - |
| 1777318859 | 18.33° C | 62% | 1022 hPa | 0 mm | - | 900 W/m² | - |
| 1777318797 | 18.33° C | 60% | 1022 hPa | 0 mm | - | 900 W/m² | - |
| 1777318734 | 18.33° C | 63% | 1021.9 hPa | 0 mm | - | 902 W/m² | - |
* Rain latest hour (hover to see other rain measurements)
** Current wind speed in m/s (hover to see current wind gust speed)